Date,TemperatureHighF,TemperatureAvgF,TemperatureLowF,DewpointHighF,DewpointAvgF,DewpointLowF,HumidityHigh,HumidityAvg,HumidityLow,PressureMaxIn,PressureMinIn,WindSpeedMaxMPH,WindSpeedAvgMPH,GustSpeedMaxMPH,PrecipitationSumIn
2013-1-1,31.1,20.4,12.4,19.0,12.3,2.0,94,73,41,30.41,30.26,5,0,7,0.00
2013-1-2,29.5,23.2,17.3,15.0,9.0,3.0,70,55,43,30.48,30.32,9,2,11,0.00
2013-1-3,40.2,24.1,13.3,13.0,6.9,2.0,65,49,29,30.50,30.37,5,0,7,0.00
2013-1-4,48.2,32.5,22.5,21.0,13.2,5.0,65,46,30,30.38,30.10,6,1,7,0.00
2013-1-5,38.4,29.8,22.2,22.0,15.0,10.0,72,55,43,30.38,30.12,9,2,13,0.00
2013-1-6,43.0,32.2,21.7,20.0,11.6,1.0,57,43,25,30.37,30.00,6,2,9,0.00
2013-1-7,51.6,40.1,30.4,23.0,16.8,11.0,67,40,26,30.03,29.77,8,2,13,0.00
2013-1-8,48.4,43.7,34.0,24.0,20.8,11.0,56,41,25,30.17,29.74,32,11,46,0.00
2013-1-9,56.1,39.5,28.9,29.0,22.3,18.0,67,52,35,30.30,30.00,9,1,10,0.00
2013-1-10,47.5,34.3,24.7,26.0,20.7,17.0,71,58,30,29.98,29.45,7,1,13,0.00
2013-1-11,39.6,27.0,8.3,27.0,16.0,5.0,97,68,27,29.88,29.28,29,6,38,0.00
2013-1-12,14.0,8.1,1.8,11.0,6.4,0.0,95,92,85,30.36,29.89,8,2,14,0.00
2013-1-13,12.9,6.2,-0.1,9.0,3.2,-2.0,94,87,76,30.50,30.35,3,0,9,0.00
2013-1-14,12.6,6.2,0.2,6.0,1.5,-4.0,93,81,71,30.53,30.41,5,1,7,0.00
2013-1-15,32.4,18.4,0.6,21.0,9.0,-4.0,83,68,49,30.49,30.36,3,0,9,0.00
2013-1-16,53.6,38.2,27.4,29.0,23.3,18.0,71,57,36,30.38,30.24,10,1,11,0.00
2013-1-17,50.3,35.3,25.9,27.0,21.7,17.0,75,59,35,30.48,30.26,7,1,9,0.00
2013-1-18,55.8,46.0,31.0,21.0,15.0,11.0,64,31,20,30.25,29.94,36,10,47,0.00
2013-1-19,57.6,47.0,34.2,19.0,13.9,8.0,43,27,20,30.13,29.98,23,6,37,0.00
2013-1-20,47.8,34.4,21.2,20.0,15.5,12.0,78,48,28,30.30,30.05,15,4,18,0.00
2013-1-21,53.6,37.9,18.4,25.0,16.3,8.0,88,50,17,30.30,30.05,37,8,46,0.00
2013-1-22,59.9,50.0,38.6,24.0,11.8,3.0,33,22,13,30.04,29.92,35,8,51,0.00
2013-1-23,65.7,53.3,36.9,17.0,11.0,3.0,39,20,12,30.08,29.96,24,6,30,0.00
2013-1-24,61.8,50.8,25.9,31.0,20.6,4.0,57,33,16,29.99,29.81,34,12,47,0.00
2013-1-25,51.8,42.3,34.2,32.0,28.6,25.0,72,59,46,30.05,29.96,11,2,18,0.00
2013-1-26,50.8,43.1,35.3,38.0,31.0,23.0,93,64,47,30.02,29.68,6,1,12,0.01
2013-1-27,55.1,43.3,35.8,40.0,32.8,22.0,94,70,38,29.73,29.64,7,2,13,0.00
2013-1-28,47.4,35.0,23.4,33.0,26.2,19.0,100,73,49,29.75,29.49,15,3,18,0.00
2013-1-29,29.9,22.0,14.0,23.0,17.2,4.0,100,83,62,30.12,29.74,14,2,24,0.14
2013-1-30,39.1,27.0,12.2,23.0,13.1,2.0,83,57,38,30.12,29.98,26,7,36,0.01
2013-1-31,45.7,35.6,23.4,28.0,22.5,19.0,89,62,39,30.15,29.96,29,7,39,0.00
2013-2-1,47.6,36.0,22.5,28.0,22.1,18.0,95,61,37,30.21,30.07,23,6,37,0.00
2013-2-2,56.9,38.1,24.3,30.0,22.7,19.0,82,57,25,30.32,30.21,12,3,17,0.00
2013-2-3,45.7,37.4,26.6,25.0,18.1,9.0,66,48,25,30.27,29.89,12,2,18,0.00
2013-2-4,52.6,42.9,29.0,22.0,16.0,10.0,52,35,23,29.98,29.79,24,8,34,0.00
2013-2-5,57.2,45.5,31.9,29.0,22.5,17.0,58,41,30,29.98,29.74,34,4,41,0.00
2013-2-6,52.2,42.5,33.0,36.0,27.5,22.0,96,59,36,30.03,29.72,21,4,29,0.00
2013-2-7,47.6,35.8,25.4,32.0,23.2,16.0,96,64,34,30.16,30.03,11,3,15,0.00
2013-2-8,50.6,34.3,23.5,20.0,14.1,11.0,68,46,23,30.04,29.74,10,2,12,0.00
2013-2-9,37.3,30.0,24.0,29.0,21.7,13.0,100,73,45,29.74,29.57,9,2,14,0.00
2013-2-10,35.1,26.8,18.5,24.0,18.2,13.0,95,72,44,30.18,29.64,11,2,19,0.00
2013-2-11,25.7,20.5,16.5,21.0,17.3,14.0,96,87,73,30.23,30.14,9,2,12,0.03
2013-2-12,41.9,27.5,14.3,18.0,8.8,4.0,83,50,22,30.25,30.14,12,3,14,0.00
2013-2-13,47.5,35.2,21.3,20.0,15.0,8.0,61,45,32,30.16,29.98,22,7,34,0.00
2013-2-14,33.8,25.6,20.4,25.0,20.4,17.0,97,82,54,30.41,30.03,17,4,25,0.00
2013-2-15,42.0,27.0,14.7,26.0,17.8,12.0,91,71,33,30.47,30.33,20,3,27,0.02
2013-2-16,55.9,44.9,20.2,24.0,18.5,15.0,86,37,26,30.33,29.89,35,12,46,0.00
2013-2-17,58.8,48.5,31.9,21.0,13.6,7.0,59,27,15,29.89,29.42,30,10,44,0.00
2013-2-18,39.4,30.4,20.9,22.0,13.3,6.0,83,53,27,30.18,29.62,18,5,26,0.00
2013-2-19,39.5,27.5,19.4,18.0,12.4,7.0,73,54,35,30.19,29.91,8,2,14,0.00
2013-2-20,36.0,24.3,16.5,27.0,19.3,14.0,99,82,53,29.92,29.74,9,4,12,0.00
2013-2-21,30.3,20.3,12.9,30.0,19.9,12.0,99,98,96,30.08,29.86,4,1,7,0.21
2013-2-22,32.1,24.0,14.7,30.0,20.5,8.0,98,88,41,30.13,29.97,26,2,39,0.00
2013-2-23,39.8,27.3,16.5,28.0,18.8,8.0,99,71,42,29.97,29.74,19,3,20,0.00
2013-2-24,27.9,25.7,22.2,28.0,25.6,22.0,100,99,97,30.23,29.83,23,4,23,0.03
2013-2-25,38.7,22.7,11.6,27.0,19.0,10.0,98,86,60,30.25,29.99,5,1,7,0.05
2013-2-26,33.7,26.6,18.2,30.0,21.0,15.0,99,80,56,30.26,29.95,23,4,23,0.87
2013-2-27,42.8,26.2,17.6,18.0,13.9,8.0,79,62,34,30.38,30.27,8,1,9,0.00
2013-2-28,39.1,31.2,18.4,22.0,13.8,5.0,68,49,35,30.40,30.28,12,3,20,0.00
2013-3-1,43.0,34.7,24.7,29.0,21.7,14.0,74,60,41,30.39,30.30,4,1,11,0.00
2013-3-2,54.4,44.6,34.4,37.0,29.6,24.0,68,57,37,30.35,29.96,13,2,19,0.00
2013-3-3,59.6,52.8,44.9,32.0,28.6,25.0,53,40,30,29.95,29.45,32,9,48,0.00
2013-3-4,49.3,30.6,20.5,31.0,24.1,11.0,98,79,46,30.29,29.46,35,5,38,0.06
2013-3-5,36.9,25.0,12.9,23.0,17.9,10.0,90,75,56,30.45,30.29,7,1,10,0.00
2013-3-6,56.1,37.6,23.5,36.0,28.5,20.0,90,72,40,30.30,29.87,7,1,12,0.00
2013-3-7,62.3,46.8,34.9,37.0,31.0,26.0,77,57,30,29.93,29.82,9,2,15,0.00
2013-3-8,43.4,36.3,29.4,35.0,30.7,24.0,93,80,63,29.88,29.67,7,1,9,0.00
2013-3-9,36.3,31.9,23.6,34.0,29.7,17.0,100,92,61,30.16,29.64,15,4,24,0.26
2013-3-10,46.1,32.9,18.3,28.0,20.8,13.0,83,63,41,30.25,30.07,10,2,21,0.03
2013-3-11,51.6,42.3,28.5,32.0,25.0,20.0,100,54,37,30.10,29.82,31,12,43,0.00
2013-3-12,38.2,28.5,23.3,29.0,26.6,23.0,100,93,69,30.37,30.10,8,2,11,0.21
2013-3-13,62.0,42.7,26.0,42.0,31.2,25.0,99,68,31,30.38,30.20,15,3,27,0.00
2013-3-14,69.3,58.4,44.1,37.0,30.5,26.0,56,36,22,30.20,29.93,20,5,26,0.00
2013-3-15,72.8,63.6,54.2,35.0,31.8,28.0,45,31,22,29.92,29.60,29,10,34,0.00
2013-3-16,58.8,45.5,38.0,37.0,34.0,29.0,78,65,39,29.79,29.63,14,4,24,0.00
2013-3-17,56.0,43.7,33.9,32.0,25.9,11.0,75,52,30,29.76,29.45,27,8,43,0.00
2013-3-18,47.2,40.1,32.0,20.0,14.7,8.0,42,36,28,29.91,29.77,27,10,42,0.00
2013-3-19,53.5,42.7,25.2,19.0,9.8,3.0,78,29,16,30.31,29.90,22,8,33,0.00
2013-3-20,50.4,36.5,20.1,30.0,23.4,16.0,87,62,40,30.30,29.76,15,3,22,0.00
2013-3-21,54.7,45.5,35.5,38.0,25.0,10.0,77,46,28,29.76,29.42,22,7,33,0.00
2013-3-22,41.9,31.4,25.3,31.0,21.9,13.0,100,71,39,29.99,29.71,17,5,21,0.00
2013-3-23,25.0,19.0,14.1,25.0,18.3,11.0,100,97,85,30.39,29.98,13,5,21,0.12
2013-3-24,29.1,17.9,6.3,27.0,16.2,5.0,98,93,82,30.47,30.33,8,2,9,0.05
2013-3-25,34.0,22.4,11.1,27.0,18.4,10.0,98,85,70,30.50,30.38,8,2,12,0.00
2013-3-26,41.1,30.7,18.4,32.0,24.0,15.0,88,76,54,30.37,30.04,7,2,8,0.00
2013-3-27,51.7,40.7,30.8,40.0,33.9,27.0,91,77,60,30.13,30.04,10,1,12,0.00
2013-3-28,58.4,45.4,33.7,40.0,35.1,31.0,93,70,43,30.08,30.01,9,1,14,0.00
2013-3-29,62.7,51.0,41.4,38.0,34.5,32.0,73,55,35,30.05,29.93,20,3,25,0.00
2013-3-30,63.5,49.1,38.7,40.0,35.5,31.0,97,63,32,30.12,29.88,24,4,33,0.00
2013-3-31,66.8,49.7,34.8,40.0,34.3,29.0,94,60,30,30.10,29.83,14,4,19,0.00
2013-4-1,48.7,39.1,27.8,38.0,32.7,26.0,95,79,56,30.10,29.97,13,3,15,0.02
2013-4-2,38.5,36.8,34.1,38.0,35.7,33.0,100,95,89,30.15,30.05,11,3,15,0.29
2013-4-3,60.7,47.3,35.6,43.0,37.4,33.0,100,73,45,30.16,29.99,17,4,22,0.00
2013-4-4,67.9,54.8,39.7,42.0,36.8,32.0,85,53,31,30.06,29.83,9,2,15,0.00
2013-4-5,72.3,59.1,49.2,40.0,34.2,29.0,70,41,26,29.81,29.47,17,6,40,0.00
2013-4-6,62.4,53.4,43.3,35.0,30.7,26.0,58,43,30,29.75,29.62,16,5,27,0.00
2013-4-7,61.8,52.8,40.3,39.0,33.3,30.0,83,50,32,29.69,29.50,26,8,36,0.00
2013-4-8,59.6,46.0,27.6,39.0,34.1,28.0,100,66,42,29.71,29.25,29,7,38,0.04
2013-4-9,26.6,18.0,11.8,27.0,17.4,11.0,100,97,92,30.41,29.70,16,6,19,0.04
2013-4-10,26.0,16.9,6.7,26.0,16.3,5.0,99,97,94,30.42,30.12,8,2,12,0.11
2013-4-11,52.3,35.3,17.0,46.0,31.1,17.0,100,87,53,30.11,29.89,11,2,15,0.03
2013-4-12,55.9,42.1,35.4,38.0,34.9,32.0,92,76,47,29.95,29.82,22,4,28,0.00
2013-4-13,62.9,48.8,29.9,41.0,33.8,29.0,99,62,29,29.91,29.32,17,4,34,0.07
2013-4-14,45.5,40.7,34.7,40.0,21.1,10.0,92,48,26,29.69,29.37,30,12,54,0.10
2013-4-15,38.3,27.8,21.8,32.0,25.0,19.0,100,90,46,30.12,29.68,14,3,18,0.23
2013-4-16,31.9,27.1,21.4,31.0,26.3,21.0,100,97,90,30.14,30.00,12,4,18,0.13
2013-4-17,30.4,25.7,17.9,30.0,25.5,18.0,100,99,96,30.30,30.03,11,3,13,0.07
2013-4-18,36.5,24.6,11.8,25.0,18.2,10.0,99,78,55,30.33,30.25,11,2,16,0.23
2013-4-19,49.5,39.1,24.6,32.0,23.9,15.0,75,55,43,30.28,29.95,21,5,26,0.00
2013-4-20,53.0,43.6,33.6,39.0,33.5,28.0,83,68,53,29.97,29.86,9,2,12,0.00
2013-4-21,58.7,49.1,35.7,38.0,31.3,27.0,91,54,32,30.00,29.86,20,6,28,0.00
2013-4-22,48.4,33.0,21.1,41.0,29.2,21.0,100,88,49,30.35,29.76,14,4,22,0.03
2013-4-23,30.7,23.8,17.4,31.0,22.9,17.0,100,96,80,30.42,30.30,10,2,11,0.95
2013-4-24,51.0,34.8,21.8,45.0,27.3,18.0,100,79,34,30.33,30.23,7,2,12,0.00
2013-4-25,58.8,45.5,34.0,35.0,25.3,16.0,57,46,29,30.23,29.87,5,2,10,0.00
2013-4-26,64.5,53.9,41.3,37.0,29.4,25.0,61,40,26,30.09,29.94,10,4,17,0.00
2013-4-27,73.7,61.6,44.8,35.0,29.5,22.0,54,31,21,30.06,29.81,14,6,22,0.00
2013-4-28,76.5,67.6,58.5,40.0,33.9,27.0,47,29,24,29.80,29.54,21,7,29,0.00
2013-4-29,76.7,65.4,47.2,43.0,37.2,32.0,71,38,22,29.65,29.32,17,6,28,0.00
2013-4-30,68.6,50.4,33.9,43.0,38.0,31.0,98,67,27,29.88,29.32,20,4,22,0.24
2013-5-1,33.7,28.8,22.8,34.0,28.9,23.0,100,100,98,30.75,29.90,12,2,16,0.37
2013-5-2,47.5,32.6,18.4,32.0,24.9,17.0,100,77,33,30.86,30.51,7,1,8,0.23
2013-5-3,57.3,44.5,28.3,39.0,31.1,25.0,88,62,41,30.50,30.07,6,1,12,0.00
2013-5-4,56.2,46.5,35.5,39.0,34.0,29.0,79,63,45,30.17,30.02,10,2,13,0.00
2013-5-5,54.9,45.3,35.3,41.0,33.1,27.0,79,63,45,30.17,30.03,10,3,17,0.00
2013-5-6,62.4,51.9,38.6,43.0,39.0,34.0,87,63,42,30.03,29.78,10,2,15,0.00
2013-5-7,67.0,53.8,43.9,48.0,42.7,37.0,91,68,42,29.86,29.71,12,4,14,0.16
2013-5-8,59.7,50.5,44.9,49.0,43.8,39.0,94,79,51,29.98,29.78,15,5,25,0.35
2013-5-9,58.3,50.2,43.9,48.0,43.8,41.0,91,79,55,30.09,29.95,20,4,34,0.12
2013-5-10,64.8,53.8,40.3,48.0,41.9,38.0,92,66,45,30.18,30.07,11,4,19,0.00
2013-5-11,67.1,55.7,45.4,49.0,43.4,38.0,83,64,44,30.25,30.04,13,4,21,0.00
2013-5-12,76.0,65.4,50.3,51.0,43.1,38.0,67,45,33,30.08,29.84,15,5,25,0.00
2013-5-13,82.5,73.8,65.3,56.0,46.0,40.0,54,38,30,29.85,29.67,17,7,23,0.00
2013-5-14,84.9,72.9,64.7,54.0,45.6,41.0,48,38,29,29.68,29.57,18,5,30,0.00
2013-5-15,76.6,65.7,55.2,56.0,47.7,40.0,84,54,35,29.70,29.56,15,4,27,0.00
2013-5-16,78.5,65.2,52.4,54.0,48.0,43.0,84,57,30,29.67,29.54,27,4,41,0.00
2013-5-17,83.3,68.6,50.8,55.0,45.6,31.0,81,49,22,29.63,29.43,22,6,29,0.00
2013-5-18,72.5,66.0,53.5,49.0,39.1,29.0,63,39,21,29.58,29.43,25,8,37,0.00
2013-5-19,68.3,59.7,50.7,44.0,36.2,34.0,60,42,31,29.62,29.51,16,7,28,0.00
2013-5-20,64.5,54.8,46.6,49.0,44.5,35.0,96,70,52,29.84,29.62,12,3,16,0.02
2013-5-21,67.0,55.0,41.8,44.0,40.4,36.0,94,61,35,29.90,29.71,14,3,19,0.00
2013-5-22,72.5,57.5,43.9,52.0,43.4,36.0,90,62,39,29.89,29.70,14,3,17,0.04
2013-5-23,66.7,55.3,46.6,54.0,49.8,46.0,100,83,64,29.91,29.76,11,3,13,0.00
2013-5-24,79.6,62.2,45.6,56.0,49.7,45.0,98,68,32,29.82,29.68,9,2,13,0.00
2013-5-25,83.2,69.3,54.5,57.0,50.6,41.0,88,55,24,29.75,29.54,9,3,13,0.00
2013-5-26,82.1,70.5,55.8,49.0,40.4,32.0,56,34,21,29.61,29.52,21,4,24,0.00
2013-5-27,82.4,67.9,52.0,47.0,38.1,28.0,56,35,20,29.56,29.41,15,4,22,0.00
2013-5-28,78.0,63.7,49.1,52.0,43.5,36.0,71,50,28,29.55,29.27,14,3,21,0.00
2013-5-29,61.9,54.6,46.9,52.0,45.5,35.0,98,73,43,29.54,29.35,22,4,28,0.10
2013-5-30,66.9,59.3,52.5,36.0,33.6,28.0,50,39,27,29.66,29.48,31,8,37,0.00
2013-5-31,68.5,60.1,47.2,33.0,28.9,25.0,54,31,23,29.81,29.62,24,10,37,0.00
2013-6-1,68.0,57.1,45.9,46.0,40.8,36.0,74,56,42,30.04,29.82,11,2,16,0.00
2013-6-2,81.5,62.6,43.6,52.0,41.8,34.0,70,49,29,30.04,29.58,10,2,13,0.00
2013-6-3,87.6,72.6,53.5,52.0,41.3,33.0,51,34,21,29.60,29.41,26,6,37,0.00
2013-6-4,68.4,59.0,50.3,55.0,47.4,32.0,94,67,36,30.02,29.60,20,4,28,0.13
2013-6-5,58.0,50.5,45.5,51.0,47.5,43.0,98,89,77,30.06,29.99,8,2,9,0.00
2013-6-6,77.8,61.6,46.6,53.0,46.7,43.0,92,62,34,30.03,29.84,10,2,14,0.00
2013-6-7,78.5,63.6,50.2,55.0,47.5,42.0,81,57,39,29.91,29.53,9,3,19,0.00
2013-6-8,74.4,67.0,56.6,54.0,48.5,42.0,69,52,38,29.77,29.46,14,3,24,0.00
2013-6-9,87.2,69.7,49.9,56.0,47.5,42.0,82,49,27,29.80,29.62,12,3,19,0.00
2013-6-10,95.4,80.2,63.6,57.0,48.7,40.0,52,34,19,29.62,29.43,11,3,17,0.00
2013-6-11,95.3,79.7,60.2,54.0,42.7,36.0,53,29,14,29.57,29.38,28,6,29,0.00
2013-6-12,90.4,75.6,58.9,56.0,44.3,33.0,63,34,24,29.75,29.59,17,4,20,0.00
2013-6-13,83.6,66.7,54.7,62.0,56.8,51.0,97,72,44,29.78,29.59,9,2,13,0.00
2013-6-14,88.6,73.3,59.3,58.0,49.8,42.0,69,46,24,29.68,29.53,15,4,19,0.00
2013-6-15,79.4,68.7,55.5,57.0,52.3,48.0,77,57,43,29.78,29.63,11,4,18,0.00
2013-6-16,76.8,67.5,55.5,60.0,51.3,43.0,86,59,32,29.87,29.74,23,5,34,0.00
2013-6-17,79.1,65.5,51.1,60.0,51.4,42.0,84,61,44,29.91,29.76,12,3,16,0.01
2013-6-18,81.6,66.8,52.2,58.0,53.8,50.0,96,66,36,29.88,29.61,10,2,14,0.00
2013-6-19,91.9,72.5,51.6,57.0,48.1,31.0,90,50,15,29.73,29.36,13,3,23,0.00
2013-6-20,87.5,74.1,56.6,53.0,41.8,29.0,54,33,19,29.57,29.42,12,4,17,0.00
2013-6-21,89.7,75.3,58.3,60.0,50.1,37.0,68,45,18,29.58,29.42,11,3,18,0.00
2013-6-22,86.3,69.2,53.3,57.0,50.0,41.0,77,53,21,29.62,29.42,11,3,23,0.00
2013-6-23,80.8,67.4,53.7,55.0,50.4,42.0,78,57,38,29.75,29.53,10,4,22,0.00
2013-6-24,86.4,74.6,57.7,55.0,47.4,35.0,76,42,20,29.65,29.41,26,5,31,0.00
2013-6-25,89.3,78.2,66.5,50.0,43.6,35.0,42,30,23,29.63,29.45,18,6,28,0.00
2013-6-26,93.9,80.1,61.4,57.0,48.1,41.0,49,33,23,29.72,29.61,11,3,19,0.00
2013-6-27,94.5,82.8,70.5,56.0,49.7,42.0,48,32,23,29.83,29.68,11,4,16,0.00
2013-6-28,90.5,75.5,62.2,65.0,56.6,48.0,93,54,38,29.91,29.73,16,4,40,0.42
2013-6-29,81.8,70.8,60.4,64.0,59.1,55.0,86,68,46,29.89,29.78,7,2,10,0.00
2013-6-30,78.3,67.9,61.8,63.0,58.7,56.0,89,73,52,29.92,29.84,12,3,16,0.01
2013-7-1,77.1,66.8,55.5,60.0,56.8,53.0,93,71,51,30.03,29.91,11,3,15,0.00
2013-7-2,81.4,67.9,54.4,58.0,54.6,50.0,89,65,41,30.00,29.84,11,2,14,0.00
2013-7-3,86.5,72.6,56.0,56.0,52.0,48.0,77,50,35,29.85,29.60,12,4,19,0.00
2013-7-4,88.2,77.3,61.4,58.0,52.0,46.0,62,42,33,29.64,29.52,15,4,21,0.00
2013-7-5,82.0,73.1,64.9,62.0,56.3,51.0,69,56,44,29.56,29.47,17,3,19,0.01
2013-7-6,90.5,76.6,63.8,60.0,54.8,50.0,69,49,31,29.61,29.51,32,7,49,0.04
2013-7-7,88.1,74.5,63.5,65.0,58.3,52.0,72,58,38,29.70,29.58,19,4,32,0.11
2013-7-8,88.7,74.7,61.1,62.0,57.6,49.0,92,58,29,29.74,29.66,23,4,33,0.01
2013-7-9,92.4,80.0,69.1,61.0,52.2,47.0,48,39,25,29.82,29.71,11,3,27,0.00
2013-7-10,89.4,74.8,60.0,63.0,57.2,49.0,76,56,31,29.85,29.65,11,3,16,0.00
2013-7-11,97.1,77.9,61.2,64.0,57.9,54.0,81,54,24,29.75,29.45,13,3,19,0.00
2013-7-12,89.1,76.3,65.7,64.0,57.3,52.0,91,54,38,29.70,29.49,17,4,31,0.12
2013-7-13,86.9,72.0,64.3,65.0,61.5,58.0,92,71,46,29.86,29.70,16,2,25,0.01
2013-7-14,78.8,69.4,59.2,65.0,60.8,55.0,91,75,54,29.93,29.77,10,3,16,0.00
2013-7-15,76.9,68.1,61.8,67.0,63.3,57.0,100,85,63,29.90,29.79,12,2,23,0.22
2013-7-16,82.9,68.6,54.4,58.0,55.3,53.0,97,66,38,29.94,29.84,10,2,19,0.00
2013-7-17,88.6,72.2,55.7,62.0,56.9,52.0,89,61,37,29.94,29.76,8,2,15,0.00
2013-7-18,90.4,74.5,62.9,61.0,57.6,55.0,75,57,37,29.83,29.69,22,6,29,0.00
2013-7-19,81.0,72.7,63.3,64.0,59.9,56.0,86,65,44,29.84,29.74,15,4,29,0.00
2013-7-20,86.3,70.3,58.7,70.0,58.4,54.0,88,68,42,29.75,29.62,23,3,30,0.13
2013-7-21,85.6,71.0,55.6,65.0,58.3,45.0,93,67,38,29.69,29.57,10,3,17,0.00
2013-7-22,90.6,78.9,63.0,64.0,52.6,39.0,54,41,22,29.66,29.54,13,3,18,0.00
2013-7-23,87.2,76.6,68.3,63.0,51.0,32.0,73,43,19,29.79,29.55,9,3,15,0.00
2013-7-24,79.7,71.6,61.4,65.0,58.5,52.0,84,65,40,29.90,29.69,14,4,22,0.01
2013-7-25,75.2,65.1,57.1,62.0,57.4,54.0,95,78,52,30.00,29.77,9,2,19,0.14
2013-7-26,84.9,70.0,58.8,60.0,54.7,50.0,83,61,32,30.02,29.84,9,2,21,0.00
2013-7-27,74.1,65.7,55.5,63.0,56.9,49.0,98,74,60,29.87,29.77,11,3,16,0.06
2013-7-28,71.5,61.9,57.8,65.0,60.1,58.0,100,94,71,29.86,29.69,9,2,12,0.05
2013-7-29,75.9,63.1,57.4,64.0,58.1,53.0,100,85,50,29.95,29.71,18,2,22,0.22
2013-7-30,86.5,71.1,59.4,60.0,56.6,53.0,84,62,34,29.98,29.85,10,2,15,0.00
2013-7-31,89.4,72.9,58.8,60.0,56.0,53.0,84,58,32,30.02,29.81,12,3,24,0.00
2013-8-1,85.6,72.1,59.0,63.0,57.0,53.0,88,62,36,29.89,29.64,11,2,20,0.00
2013-8-2,91.0,76.5,59.4,61.0,56.0,50.0,80,52,31,29.69,29.61,11,3,17,0.00
2013-8-3,89.4,70.7,60.2,67.0,59.2,55.0,100,70,36,29.95,29.66,18,3,29,0.94
2013-8-4,86.2,71.6,56.7,64.0,57.1,53.0,88,62,37,29.88,29.76,11,2,16,0.00
2013-8-5,84.8,70.8,63.0,61.0,56.0,49.0,90,61,38,29.76,29.69,16,3,19,0.11
2013-8-6,80.7,71.3,61.0,61.0,53.4,48.0,75,55,35,29.75,29.67,23,3,31,0.00
2013-8-7,74.4,65.5,58.3,59.0,55.6,49.0,89,72,53,29.81,29.72,11,2,13,0.00
2013-8-8,72.9,62.7,53.5,61.0,57.1,52.0,96,82,63,29.94,29.77,14,2,15,0.02
2013-8-9,76.2,64.9,54.4,57.0,53.7,50.0,93,69,46,29.96,29.89,17,3,22,0.00
2013-8-10,84.5,68.2,53.1,59.0,51.8,47.0,81,58,36,29.99,29.82,10,2,15,0.00
2013-8-11,79.8,69.5,60.1,58.0,53.0,48.0,86,58,39,29.89,29.81,12,3,16,0.08
2013-8-12,79.8,66.7,54.9,60.0,55.0,50.0,91,68,39,30.01,29.84,13,3,22,0.00
2013-8-13,76.4,66.0,54.2,56.0,52.3,49.0,84,62,44,29.97,29.86,14,4,24,0.00
2013-8-14,80.5,65.5,51.5,59.0,52.2,48.0,92,65,39,29.97,29.82,9,2,27,0.02
2013-8-15,83.7,67.8,55.8,58.0,50.9,44.0,72,56,36,29.91,29.81,9,2,11,0.00
2013-8-16,90.0,74.1,57.1,56.0,51.2,46.0,75,47,24,29.90,29.77,8,2,11,0.00
2013-8-17,92.1,75.5,58.4,58.0,49.1,42.0,70,43,19,29.82,29.65,8,2,11,0.00
2013-8-18,90.9,74.7,60.3,61.0,50.0,41.0,59,43,28,29.79,29.69,10,2,17,0.00
2013-8-19,93.1,77.4,60.7,59.0,50.8,45.0,62,41,25,29.78,29.63,9,2,17,0.00
2013-8-20,95.7,79.7,64.0,61.0,49.7,44.0,51,36,20,29.67,29.56,15,3,15,0.00
2013-8-21,88.4,76.9,67.5,59.0,53.2,46.0,62,44,33,29.79,29.64,12,4,17,0.00
2013-8-22,80.5,70.5,60.6,65.0,58.4,54.0,89,66,48,29.89,29.78,13,2,15,0.15
2013-8-23,81.0,70.9,59.5,63.0,58.0,52.0,92,66,41,29.88,29.66,13,3,29,0.01
2013-8-24,85.2,72.8,58.9,59.0,55.2,51.0,78,55,38,29.78,29.67,18,4,22,0.03
2013-8-25,87.3,74.5,62.0,59.0,55.3,50.0,72,53,34,29.81,29.72,18,3,23,0.00
2013-8-26,88.2,74.5,62.9,62.0,58.0,54.0,84,58,39,29.79,29.72,17,5,27,0.14
2013-8-27,90.2,76.8,63.5,64.0,59.3,55.0,86,57,38,29.80,29.66,11,2,14,0.00
2013-8-28,89.7,78.1,65.9,60.0,56.0,50.0,67,48,35,29.75,29.67,16,3,26,0.00
2013-8-29,92.3,79.9,68.2,58.0,53.8,49.0,55,41,29,29.78,29.71,14,4,24,0.00
2013-8-30,89.9,77.7,65.3,59.0,54.9,50.0,62,46,33,29.80,29.69,17,3,20,0.00
2013-8-31,90.8,75.2,63.8,62.0,54.2,50.0,66,49,31,29.79,29.67,27,5,30,0.00
2013-9-1,78.3,69.7,60.3,62.0,58.8,52.0,90,69,48,29.87,29.77,13,2,15,0.01
2013-9-2,87.8,73.4,58.8,63.0,57.6,51.0,89,61,34,29.86,29.69,7,2,12,0.00
2013-9-3,93.3,78.2,63.8,62.0,56.7,51.0,77,49,31,29.76,29.66,15,4,20,0.22
2013-9-4,88.2,75.8,65.4,64.0,57.8,55.0,75,55,35,29.83,29.73,19,3,27,0.00
2013-9-5,90.3,75.4,61.7,62.0,56.9,54.0,80,55,36,29.86,29.76,9,2,11,0.00
2013-9-6,93.3,78.7,68.5,61.0,55.2,52.0,60,46,29,29.79,29.65,16,4,28,0.00
2013-9-7,90.5,77.1,62.1,59.0,54.1,50.0,65,46,31,29.75,29.62,12,3,14,0.00
2013-9-8,85.6,74.4,62.5,58.0,52.5,49.0,62,47,36,29.68,29.52,20,3,25,0.00
2013-9-9,82.4,67.6,58.5,62.0,56.8,52.0,100,71,43,29.77,29.55,15,4,28,0.83
2013-9-10,64.0,59.7,57.0,61.0,59.0,57.0,100,98,88,30.00,29.75,6,2,11,0.36
2013-9-11,63.1,59.9,58.1,62.0,59.9,58.0,100,100,96,30.03,29.96,13,5,18,2.15
2013-9-12,60.8,59.5,58.1,61.0,59.6,58.0,100,100,100,30.09,30.00,16,5,17,3.75
2013-9-24,58.4,56.5,53.3,43.0,41.1,39.0,63,57,54,29.70,29.65,3,1,4,0.00
2013-9-25,75.2,60.7,46.8,56.0,44.9,36.0,73,57,37,29.65,29.24,6,2,9,0.00
2013-9-26,64.1,56.1,46.8,52.0,46.9,41.0,87,72,53,29.57,29.34,8,2,15,0.00
2013-9-27,53.5,46.6,39.8,52.0,45.9,40.0,100,98,82,29.92,29.54,9,4,14,0.30
2013-9-28,65.5,51.8,37.9,46.0,35.8,26.0,100,56,35,30.08,29.92,24,5,32,0.01
2013-9-29,72.9,59.6,46.7,50.0,37.6,30.0,64,46,25,29.99,29.70,21,4,37,0.00
2013-9-30,79.7,69.1,58.3,55.0,41.6,33.0,55,37,27,29.70,29.49,19,5,36,0.00
2013-10-1,69.6,61.6,53.7,53.0,43.9,36.0,71,54,30,29.81,29.61,11,2,18,0.00
2013-10-2,73.4,60.0,49.1,51.0,45.3,38.0,79,60,38,29.79,29.67,9,2,12,0.00
2013-10-3,57.8,50.2,40.7,50.0,44.5,38.0,100,82,66,29.72,29.59,12,2,13,0.13
2013-10-4,45.5,37.5,31.2,46.0,36.7,29.0,100,97,87,30.18,29.66,12,2,18,0.74
2013-10-5,61.6,45.3,30.1,34.0,27.7,17.0,95,57,26,30.24,30.11,14,3,20,0.00
2013-10-6,66.6,52.9,39.1,45.0,33.8,18.0,69,49,29,30.16,30.07,8,2,10,0.00
2013-10-7,74.0,57.8,41.9,50.0,40.1,33.0,76,54,31,30.06,29.72,9,2,16,0.00
2013-10-8,75.6,62.7,55.0,51.0,40.3,31.0,64,45,27,29.72,29.48,14,2,19,0.00
2013-10-9,60.6,54.3,49.4,48.0,42.5,35.0,84,65,52,29.80,29.56,10,3,13,0.00
2013-10-10,56.2,49.8,43.0,51.0,43.6,33.0,98,81,50,29.79,29.39,21,3,28,0.01
2013-10-11,59.1,53.8,44.5,42.0,34.4,31.0,86,49,42,29.90,29.25,42,12,64,0.00
2013-10-12,52.4,45.4,41.0,44.0,40.9,38.0,94,84,70,30.08,29.90,6,2,9,0.00
2013-10-13,57.9,47.7,37.8,49.0,42.0,35.0,91,81,66,30.09,29.77,5,1,9,0.00
2013-10-14,50.5,46.0,40.0,45.0,40.2,35.0,89,80,58,30.09,29.70,14,3,30,0.00
2013-10-15,41.7,37.8,34.6,35.0,31.5,29.0,88,78,69,30.27,30.09,13,2,13,0.00
2013-10-16,51.7,39.1,27.5,38.0,31.1,25.0,96,75,52,30.22,30.02,7,1,12,0.00
2013-10-17,44.4,39.8,33.7,36.0,32.5,26.0,92,75,59,30.10,30.01,9,2,13,0.00
2013-10-18,45.2,35.3,30.7,39.0,32.4,29.0,100,90,65,30.22,30.06,7,2,13,0.21
2013-10-19,61.9,51.9,31.3,39.0,29.6,25.0,89,44,33,30.15,29.77,21,6,25,0.01
2013-10-20,55.6,42.6,33.4,39.0,33.1,27.0,100,74,36,30.08,29.73,15,3,24,0.11
2013-10-21,59.1,45.1,30.0,39.0,33.3,29.0,99,68,38,30.22,30.08,16,3,26,0.13
2013-10-22,61.6,52.1,38.5,41.0,35.6,30.0,82,55,39,30.11,29.98,15,3,21,0.00
2013-10-23,61.9,51.1,41.7,42.0,36.4,29.0,77,58,44,30.10,29.98,8,2,12,0.00
2013-10-24,52.4,43.1,33.8,43.0,38.1,32.0,95,83,67,30.23,30.11,7,1,9,0.00
2013-10-25,67.8,51.0,36.0,48.0,38.3,33.0,96,66,40,30.20,30.02,10,2,19,0.00
2013-10-26,61.4,49.5,40.5,43.0,37.2,32.0,80,63,47,30.22,30.02,5,1,9,0.00
2013-10-27,67.5,57.2,42.7,36.0,32.3,28.0,69,41,29,30.02,29.65,17,5,26,0.00
2013-10-28,53.1,40.7,31.2,35.0,33.1,30.0,100,78,43,30.04,29.68,9,3,18,0.05
2013-10-29,35.9,33.2,31.4,35.0,33.3,31.0,100,100,97,30.08,29.96,4,1,17,0.01
2013-10-30,43.3,35.3,27.4,40.0,33.6,24.0,100,94,47,29.97,29.86,9,2,18,0.26
2013-10-31,51.8,45.5,33.4,31.0,25.9,21.0,87,48,37,29.88,29.74,34,12,48,0.00
2013-11-1,51.0,41.9,33.7,37.0,31.1,26.0,85,66,50,30.21,29.82,9,3,16,0.00
2013-11-2,63.0,44.5,30.3,40.0,28.2,21.0,79,56,27,30.21,29.70,9,1,11,0.00
2013-11-3,65.7,51.8,36.1,33.0,27.7,21.0,77,43,23,29.70,29.38,26,7,35,0.00
2013-11-4,40.4,34.5,28.3,32.0,25.1,20.0,100,71,49,29.99,29.66,13,4,18,0.00
2013-11-5,44.6,34.5,27.9,27.0,18.5,6.0,86,57,28,30.19,29.95,21,6,28,0.00
2013-11-6,50.9,42.3,26.8,25.0,19.6,7.0,57,41,33,30.30,30.16,20,8,35,0.00
2013-11-7,51.3,42.3,30.3,32.0,26.4,21.0,69,54,39,30.34,29.95,11,2,20,0.00
2013-11-8,63.7,56.0,42.3,31.0,26.6,19.0,54,33,24,29.95,29.67,21,8,46,0.00
2013-11-9,58.2,47.3,36.8,39.0,32.6,27.0,79,59,33,30.16,29.81,23,2,32,0.00
2013-11-10,66.7,50.2,34.8,39.0,32.4,29.0,80,54,27,30.20,30.07,11,1,17,0.00
2013-11-11,62.7,45.4,30.5,39.0,30.9,26.0,95,62,31,30.58,30.07,13,3,18,0.00
2013-11-12,56.1,41.0,28.5,40.0,33.2,27.0,97,75,53,30.61,30.37,6,0,9,0.00
2013-11-13,64.0,54.5,36.5,37.0,26.6,19.0,78,35,25,30.36,29.85,16,3,22,0.00
2013-11-14,56.2,47.9,39.1,39.0,32.4,24.0,73,56,34,29.91,29.64,10,2,19,0.00
2013-11-15,59.7,46.4,33.6,31.0,26.5,21.0,85,49,24,29.64,29.37,22,3,28,0.00
2013-11-16,53.9,44.9,39.1,33.0,25.6,18.0,72,48,32,29.45,29.18,35,6,52,0.00
2013-11-17,56.6,43.0,33.3,31.0,23.6,20.0,82,49,28,30.02,29.43,22,5,45,0.00
2013-11-18,59.9,44.1,28.1,28.0,21.2,16.0,68,43,23,30.12,29.96,9,2,13,0.00
2013-11-19,57.7,50.8,42.8,37.0,25.8,14.0,63,39,24,29.96,29.61,20,5,28,0.00
2013-11-20,56.3,47.8,28.7,36.0,31.3,25.0,91,54,41,29.93,29.62,16,3,29,0.00
2013-11-21,27.5,16.0,11.4,26.0,15.1,10.0,98,96,93,30.82,29.95,5,1,9,0.00
2013-11-22,34.8,24.5,14.7,33.0,22.6,14.0,99,92,73,30.82,30.69,3,0,9,0.18
2013-11-23,34.2,27.5,22.5,27.0,23.4,21.0,97,85,67,30.76,30.44,5,0,8,0.05
2013-11-24,40.1,28.8,21.0,31.0,26.3,20.0,100,90,55,30.43,30.09,4,0,6,0.01
2013-11-25,43.6,35.7,30.4,31.0,26.7,21.0,90,71,41,30.35,30.14,15,1,18,0.00
2013-11-26,49.0,36.7,29.0,29.0,24.8,22.0,84,64,42,30.45,30.27,6,1,12,0.00
2013-11-27,62.1,43.3,28.4,35.0,26.3,22.0,77,54,28,30.26,30.02,8,1,14,0.00
2013-11-28,44.0,35.8,29.3,31.0,27.7,24.0,86,73,58,30.18,30.10,6,0,8,0.00
2013-11-29,59.7,49.1,33.0,29.0,26.3,22.0,82,44,28,30.15,30.05,23,7,30,0.00
2013-11-30,56.5,48.7,38.5,31.0,24.0,19.0,53,38,31,30.06,29.98,14,3,24,0.00
2013-12-1,54.3,46.7,35.7,30.0,25.9,21.0,62,45,35,30.06,29.76,31,8,39,0.00
2013-12-2,54.9,50.9,46.5,30.0,28.1,25.0,48,42,36,29.77,29.36,53,11,53,0.00
2013-12-3,52.4,35.8,10.4,33.0,22.7,9.0,96,64,37,29.75,29.29,37,8,39,0.00
2013-12-4,12.7,6.9,0.7,11.0,5.2,-1.0,95,93,90,30.42,29.76,3,0,6,0.00
2013-12-5,9.0,0.3,-8.6,7.0,-2.3,-11.0,94,89,82,30.56,30.40,4,0,5,0.02
2013-12-6,10.4,0.3,-5.7,7.0,-2.3,-8.0,100,89,83,30.67,30.55,3,0,4,0.00
2013-12-7,11.3,1.7,-4.9,8.0,-0.5,-7.0,100,90,83,30.64,30.18,0,0,0,0.00
2013-12-8,18.8,7.4,0.4,15.0,5.6,-2.0,94,92,83,30.39,30.11,5,0,6,0.00
2013-12-9,23.0,10.7,-2.9,14.0,3.0,-5.0,94,75,41,30.44,30.33,34,5,39,0.00
2013-12-10,40.4,32.8,22.8,18.0,13.8,3.0,73,46,39,30.41,29.94,49,14,67,0.00
2013-12-11,33.3,21.5,13.6,19.0,14.9,11.0,93,77,40,30.53,30.32,5,1,7,0.00
2013-12-12,51.7,35.8,23.8,30.0,17.6,8.0,67,49,34,30.50,29.96,4,1,7,0.01
2013-12-13,48.0,36.2,27.9,26.0,20.3,15.0,71,54,32,30.18,29.86,9,1,12,0.00
2013-12-14,46.1,34.2,23.3,23.0,19.9,18.0,81,58,36,30.31,30.18,12,2,17,0.00
2013-12-15,55.8,47.6,34.3,26.0,22.5,19.0,58,38,29,30.18,29.97,35,13,51,0.00
2013-12-16,58.5,53.0,44.6,25.0,21.7,17.0,38,30,24,30.09,29.89,41,11,55,0.00
2013-12-17,59.0,49.5,34.6,30.0,22.6,18.0,53,36,25,30.20,29.95,18,4,32,0.00
2013-12-18,64.9,58.0,51.9,26.0,21.8,19.0,33,25,20,29.93,29.50,22,7,32,0.00
2013-12-19,53.3,34.9,16.4,29.0,23.6,16.0,97,67,34,29.88,29.41,12,3,16,0.00
2013-12-20,24.2,19.0,16.3,24.0,18.6,16.0,100,98,97,29.91,29.83,5,1,8,0.00
2013-12-21,30.1,22.8,13.9,27.0,21.7,13.0,100,95,79,30.07,29.75,3,0,7,0.01
2013-12-22,36.6,24.7,14.6,26.0,20.3,14.0,99,85,49,30.39,30.06,16,2,23,0.08
2013-12-23,46.6,26.6,14.8,29.0,22.0,14.0,100,85,48,30.44,30.19,23,3,36,0.01
2013-12-24,48.6,40.9,24.4,34.0,22.7,11.0,70,49,34,30.24,29.97,54,12,76,0.01
2013-12-25,46.0,32.9,22.0,19.0,14.5,11.0,70,49,26,30.45,30.23,20,2,35,0.00
2013-12-26,54.4,42.5,31.9,21.0,17.0,11.0,59,37,26,30.30,30.18,31,5,43,0.00
2013-12-27,58.5,42.7,31.5,30.0,24.7,18.0,63,50,33,30.27,30.00,5,0,7,0.00
2013-12-28,54.7,38.5,20.2,31.0,25.1,19.0,96,61,35,30.22,29.79,14,3,17,0.00
2013-12-29,41.1,26.2,12.2,27.0,17.7,11.0,97,74,35,30.31,30.03,26,3,43,0.05
2013-12-30,46.8,39.6,24.7,21.0,17.7,15.0,67,42,33,30.25,30.07,19,8,32,0.00
2013-12-31,51.7,47.6,43.8,28.0,24.7,20.0,47,41,37,30.06,29.81,26,12,41,0.00
2014-1-1,45.6,33.7,23.3,32.0,26.5,20.0,93,77,47,30.30,29.78,15,3,25,0.00
2014-1-2,45.8,29.3,18.8,27.0,22.1,17.0,96,76,46,30.39,30.11,17,1,21,0.00